Location: Sulphur Springs (historical)
(38.1246°N, 122.1900°W)
Time: 04:32:20
(UTC+00:00)

CZ-4B R/B - Pass Details

Date: 29 October 2020
Orbit: 489 x 649 km, 97.9° (Epoch: 27 November)

Event Time Altitude Azimuth Distance (km) Brightness Sun altitude
Rises 14:00:37 0° 360° (N) 2,772 6.3 -6.9°
Reaches altitude 10° 14:02:55 10° 349° (NNW) 1,899 5.3 -6.4°
Maximum altitude 14:06:29 29° 289° (WNW) 1,106 3.8 -5.7°
Drops below altitude 10° 14:10:10 10° 229° (SW) 1,967 5.3 -5.0°
Sets 14:12:36 0° 218° (SW) 2,892 6.2 -4.6°
